Location: Newark
(44.3248°N, 23.7839°E)
Time: 06:57:15
(UTC+00:00)

PCSat - Pass Details

Date: 19 April 2024
Orbit: 783 x 792 km, 67.1° (Epoch: 27 May)

Event Time Altitude Azimuth Distance (km) Brightness Sun altitude
Rises 00:50:34 0° 336° (NNW) 3,298 13.1 -25.2°
Reaches altitude 10° 00:54:27 10° 4° (N) 2,367 12.7 -24.8°
Maximum altitude 00:56:57 13° 31° (NNE) 2,153 12.8 -24.5°
Drops below altitude 10° 00:59:26 10° 59° (ENE) 2,364 13.0 -24.2°
Sets 01:03:18 0° 87° (E) 3,290 13.5 -23.7°
